This demonstration page uses our WeatherBlox Daily Observations layout. Learn more.

Left ArrowRight Arrow

34.74481, -87.66753

Hourly Observations for October 31, 2019

Temp ( °F °C ) Dew Point ( °F °C ) Humidity (%) Winds ( mph kmh ) Pressure ( in mb ) Visibility ( mi km ) Precip ( " mm )
12:28 am 00:28 Cloudy with Rain 69 20.6 67 19.4 93 93 Calm 29.85 1011 2 3 0.01 0.25
12:38 am 00:38 Cloudy with Rain 69 20.6 67 19.4 93 93 SSW 5 7 29.86 1011 2 2 0.05 1.27
12:46 am 00:46 Cloudy with Rain 69 20.6 67 19.4 93 93 SSW 3 6 29.85 1011 2 3 0.07 1.78
12:53 am 00:53 Cloudy with Rain 69 20.6 67 19.4 93 93 SSE 3 6 29.83 1010 3 4 0.09 2.29
1:39 am 01:39 Cloudy with Rain 69 20.6 67 19.4 93 93 Calm 29.81 1009 5 8 0.13 3.30
1:53 am 01:53 Mostly Cloudy with Light Rain 70 21.1 68 20 93 93 S 6 9 29.78 1009 10 16 0.14 3.56
2:34 am 02:34 Mostly Cloudy with Light Rain 71 21.7 69 20.6 94 94 SSE 9 15 29.75 1008 10 16 0.01 0.25
3:53 am 03:53 Mostly Cloudy 73 22.8 69 20.6 87 87 SSW 13 20 29.75 1007 10 16 0.01 0.25
4:00 am 04:00 Mostly Cloudy 72 22.2 69 20.6 91 91 SSW 13 20 29.74 1007 10 16 0.00 0.00
4:15 am 04:15 Cloudy with Light Rain 70 21.1 67 19.4 90 90 undefined N/A 29.79 1009 10 16 0.01 0.25
4:29 am 04:29 Cloudy with Heavy Rain 58 14.4 55 12.8 90 90 WNW 26 43 29.82 1010 3 4 0.15 3.81
4:36 am 04:36 Cloudy with Light Rain 57 13.9 54 12.2 90 90 WNW 24 39 29.83 1010 6 10 0.17 4.32
4:53 am 04:53 Cloudy with Light Rain 55 12.8 53 11.7 93 93 WNW 20 31 29.82 1010 10 16 0.22 5.59
5:26 am 05:26 Cloudy with Light Rain 53 11.7 49 9.4 86 86 WNW 16 26 29.87 1012 8 13 0.00 0.00
5:53 am 05:53 Cloudy with Rain 51 10.6 49 9.4 92 92 WNW 16 26 29.89 1012 5 8 0.07 1.78
6:18 am 06:18 Cloudy 50 10 46 7.8 86 86 NW 14 22 29.92 1013 10 16 0.01 0.25
6:49 am 06:49 Cloudy with Light Rain 48 9 46 8 94 94 WNW 15 24 29.94 1014 9 14 0.03 0.76
6:53 am 06:53 Cloudy 49 9.4 46 7.8 90 90 NW 15 24 29.92 1013 10 16 0.03 0.76
7:05 am 07:05 Cloudy with Light Rain 49 9.4 45 7.2 86 86 NW 13 20 29.95 1014 9 14 0.01 0.25
7:24 am 07:24 Cloudy with Heavy Rain 48 8.9 45 7.2 89 89 NW 14 22 29.96 1015 4 6 0.12 3.05
7:44 am 07:44 Cloudy with Heavy Rain 48 8.9 45 7.2 89 89 WNW 14 22 29.98 1015 3 5 0.22 5.59
7:53 am 07:53 Cloudy with Heavy Rain 47 8.3 44 6.7 90 90 WNW 20 31 29.96 1015 4 6 0.26 6.60
8:27 am 08:27 Cloudy with Light Rain 45 7.2 42 5.6 90 90 WNW 18 30 30.01 1016 10 16 0.02 0.51
8:53 am 08:53 Cloudy 45 7.2 41 5 86 86 WNW 13 20 30.00 1016 10 16 0.03 0.76
9:02 am 09:02 Cloudy 45 7.2 41 5 86 86 NW 15 24 30.02 1017 10 16 0.00 0.00
9:09 am 09:09 Cloudy 45 7.2 41 5 86 86 WNW 20 31 30.04 1017 10 16 0.00 0.00
9:19 am 09:19 Mostly Cloudy 45 7.2 40 4.4 83 83 WNW 15 24 30.04 1017 10 16 0.00 0.00
9:32 am 09:32 Mostly Cloudy 45 7.2 40 4.4 83 83 WNW 16 26 30.06 1018 10 16 0.00 0.00
9:53 am 09:53 Cloudy with Mist and Fog 44 6.7 40 4.4 85 85 NW 12 19 30.05 1018 6 10 0.00 0.00
10:35 am 10:35 Cloudy with Light Rain 43 6.1 40 4.4 89 89 WNW 15 24 30.10 1019 10 16 0.00 0.00
10:53 am 10:53 Cloudy with Light Rain 43 6.1 38 3.3 82 82 NW 16 26 30.09 1019 10 16 0.01 0.25
10:58 am 10:58 Cloudy 43 6.1 38 3.3 82 82 WNW 17 28 30.12 1020 10 16 0.00 0.00
11:53 am 11:53 Cloudy 44 6.7 36 2.2 73 73 NW 15 24 30.11 1020 10 16 0.00 0.00
12:01 pm 12:01 Cloudy 46 7.8 38 3.3 73 73 WNW 13 20 30.13 1020 10 16 0.00 0.00
12:10 pm 12:10 Cloudy 44 6.7 35 1.7 71 71 WNW 18 30 30.14 1021 10 16 0.00 0.00
12:46 pm 12:46 Mostly Cloudy 45 7.2 38 3.3 77 77 WNW 16 26 30.14 1021 10 16 0.00 0.00
12:53 pm 12:53 Cloudy 45 7.2 38 3.3 77 77 NW 16 26 30.13 1020 10 16 0.00 0.00
1:27 pm 13:27 Cloudy 43 6.1 34 1.1 71 71 NW 22 35 30.17 1022 10 16 0.00 0.00
1:35 pm 13:35 Cloudy 42 5.6 32 0 68 68 NW 17 28 30.17 1022 10 16 0.00 0.00
1:53 pm 13:53 Cloudy 42 5.6 32 0 68 68 WNW 18 30 30.16 1021 10 16 0.00 0.00
2:53 pm 14:53 Cloudy 42 5.6 31 -0.6 65 65 NW 12 19 30.18 1022 10 16 0.00 0.00
3:53 pm 15:53 Cloudy 43 6.1 30 -1.1 60 60 NW 14 22 30.21 1023 10 16 0.00 0.00
4:53 pm 16:53 Cloudy 43 6.1 30 -1.1 60 60 NW 14 22 30.22 1024 10 16 0.00 0.00
5:53 pm 17:53 Cloudy 42 5.6 29 -1.7 60 60 NW 7 11 30.24 1024 10 16 0.00 0.00
6:53 pm 18:53 Cloudy 40 4.4 29 -1.7 65 65 NW 10 17 30.29 1026 10 16 0.00 0.00
7:53 pm 19:53 Clear 39 3.9 28 -2.2 65 65 NW 7 11 30.32 1027 10 16 0.00 0.00
8:53 pm 20:53 Clear 37 2.8 30 -1.1 76 76 NW 6 9 30.33 1027 10 16 0.00 0.00
9:53 pm 21:53 Clear 37 2.8 29 -1.7 73 73 NNW 5 7 30.35 1028 10 16 0.00 0.00
10:53 pm 22:53 Clear 36 2.2 29 -1.7 76 76 NNW 5 7 30.35 1028 10 16 0.00 0.00
11:53 pm 23:53 Clear 36 2.2 29 -1.7 76 76 N 6 9 30.35 1028 10 16 0.00 0.00

Powered by AerisWeather